Content
SEND FEEDBACK

Daily
Averages
Monthly
Summary
Switzerland

GENEVA, SWITZERLAND


Home > Europe > Switzerland
Elevation: 1364 feet     Latitude: 46 15N     Longitude: 006 08E

WEATHER
 
SELECT A DAY
Number of Records: 306,355;   Date Range: 7/1/96 - 9/20/14
 
SHARE

PRINT THIS DATA

[ ← Previous Day ]
WEATHER ALMANAC - FEBRUARY 24, 2013
[ Next Day → ]
[ °C ]   °F
Weather ElementAverageHighLow
Temperature28.4 °F32 °F (12:50 pm)24.8 °F (7:20 am)
Dewpoint15.6 °F21.2 °F (7:20 pm)11 °F (1:00 am)
Humidity55.7 %80 % (7:50 am)33 % (2:00 pm)
Barometer29.84 in30.01 in (11:00 pm)29.77 in (12:20 am)
Wind Speed7.5 mph16.1 mph (12:00 pm)
Weather ElementAverage
Visibility5.9 mi
Wind DirectionESE (104.4 °)

Weather ElementTotal
Precipitation---
Heating Degree Days36.6 (Base 65)
Averaged from 66 records on February 24, 2013
WEATHER CONDITIONS BREAKOUT
WIND DIRECTION BREAKOUT
WEATHER BY HOUR - FEBRUARY 24, 2013
[ °C ]   °F
Local TimeTemperatureDewpointHumidityBarometerVisibilityWind DirectionWind SpeedGust SpeedPrecipitationEventsConditions
12:20 AM26.6 °F12.2 °F55 %29.77 in5.6 miNorth (10°)6.9 mphOvercast
12:50 AM26.6 °F12.2 °F55 %29.77 in5.6 miNorth (10°)5.8 mphOvercast
1:00 AM27.0 °F11.0 °F37 %29.86 in6.0 miNorth (10°)4.6 mphHaze
1:20 AM26.6 °F12.2 °F55 %29.77 in5.6 miNNE (20°)6.9 mphOvercast
1:50 AM26.6 °F12.2 °F55 %29.77 in5.6 miNNE (30°)5.8 mphOvercast
2:00 AM27.0 °F11.0 °F37 %29.86 inNorth3.5 mph
2:50 AM26.6 °F12.2 °F55 %29.77 in5.6 miNorth (360°)6.9 mphOvercast
3:00 AM27.0 °F11.0 °F37 %29.87 inNorth6.9 mph
3:20 AM26.6 °F12.2 °F55 %29.77 in5.6 miNorth (10°)5.8 mphOvercast
3:50 AM26.6 °F12.2 °F55 %29.77 in5.6 miNorth (350°)4.6 mphOvercast
4:20 AM26.6 °F12.2 °F55 %29.77 in5.6 miNorth (350°)4.6 mphOvercast
4:50 AM26.6 °F12.2 °F55 %29.77 in5.6 miNNW (340°)6.9 mphOvercast
5:00 AM27.0 °F12.0 °F38 %29.86 inNorth (350°)6.9 mph
5:20 AM26.6 °F14.0 °F59 %29.77 in5.6 miNorth (350°)5.8 mphOvercast
5:50 AM26.6 °F14.0 °F59 %29.77 in5.6 miNorth (360°)4.6 mphOvercast
6:00 AM27.0 °F14.0 °F44 %29.86 inNE (40°)6.9 mph
6:20 AM26.6 °F14.0 °F59 %29.77 in5.0 miNE (40°)8.1 mphSnowLight Snow
6:50 AM26.6 °F15.8 °F64 %29.77 in5.0 miNNE (30°)8.1 mphSnowLight Snow
7:00 AM26.0 °F16.0 °F53 %29.87 in5.0 miNE (40°)8.1 mphSnowLight Snow
7:20 AM24.8 °F17.6 °F74 %29.77 in5.0 miNE (40°)6.9 mphSnowLight Snow
7:50 AM24.8 °F19.4 °F80 %29.80 in4.3 miNE (40°)5.8 mphSnowLight Snow
8:00 AM26.0 °F18.0 °F62 %29.88 inNNE (30°)6.9 mph
8:20 AM26.6 °F17.6 °F69 %29.80 in6.2 miNNE (20°)6.9 mphSnowLight Snow
8:50 AM26.6 °F14.0 °F59 %29.80 in6.2 miNNE (20°)6.9 mphMostly Cloudy
9:20 AM26.6 °F17.6 °F69 %29.80 in6.2 miNNE (20°)8.1 mphSnowLight Snow
9:50 AM28.4 °F17.6 °F64 %29.80 in6.2 miNE (40°)9.2 mphSnowLight Snow Showers
10:20 AM28.4 °F19.4 °F69 %29.80 in6.2 miENE (60°)9.2 mphScattered Clouds
10:50 AM30.2 °F17.6 °F60 %29.80 in6.2 miENE (70°)13.8 mphMostly Cloudy
11:00 AM31.0 °F18.0 °F47 %29.88 inNE (50°)11.5 mph
11:20 AM30.2 °F17.6 °F60 %29.80 in6.2 miENE (60°)13.8 mphMostly Cloudy
11:50 AM30.2 °F15.8 °F55 %29.80 in6.2 miENE (70°)13.8 mphMostly Cloudy
12:00 PM31.0 °F15.0 °F37 %29.87 inENE (70°)16.1 mph
12:20 PM30.2 °F14.0 °F51 %29.80 in6.2 miENE (60°)13.8 mphSnowLight Snow Showers
12:50 PM32.0 °F15.8 °F51 %29.80 in6.2 miENE (70°)12.7 mphMostly Cloudy
1:00 PM32.0 °F14.0 °F34 %29.87 in7.0 miNE (50°)16.1 mphSnowLight Snow Showers
1:20 PM32.0 °F15.8 °F51 %29.80 in6.2 miENE (70°)15.0 mphMostly Cloudy
1:50 PM32.0 °F14.0 °F48 %29.80 in6.2 miENE (70°)12.7 mphMostly Cloudy
2:00 PM31.0 °F13.0 °F33 %29.88 inENE (70°)13.8 mph
2:20 PM32.0 °F15.8 °F51 %29.80 in6.2 miENE (60°)12.7 mphMostly Cloudy
2:50 PM30.2 °F15.8 °F55 %29.80 in6.2 miENE (60°)10.4 mphSnowLight Snow Showers
3:00 PM31.0 °F16.0 °F40 %29.88 inNE (40°)11.5 mph
3:20 PM30.2 °F15.8 °F55 %29.80 in6.2 miNE (40°)9.2 mphSnowLight Snow Showers
3:50 PM32.0 °F17.6 °F55 %29.83 in6.2 miNE (40°)10.4 mphMostly Cloudy
4:20 PM30.2 °F17.6 °F60 %29.83 in5.6 miNE (40°)8.1 mphMostly Cloudy
4:50 PM30.2 °F17.6 °F60 %29.83 in6.2 miNE (40°)8.1 mphScattered Clouds
5:00 PM31.0 °F16.0 °F40 %29.91 inNNE (20°)6.9 mph
5:20 PM30.2 °F17.6 °F60 %29.83 in6.2 miVariable3.5 mphMostly Cloudy
5:50 PM30.2 °F19.4 °F64 %29.83 in6.2 miVariable3.5 mphMostly Cloudy
6:00 PM29.0 °F18.0 °F50 %29.92 inNNW (330°)3.5 mph
6:20 PM30.2 °F17.6 °F60 %29.86 in6.2 miVariable3.5 mphMostly Cloudy
6:31 PM30.2 °F17.6 °F60 %29.86 in6.2 miNNW (330°)3.5 mphMostly Cloudy
6:50 PM30.2 °F17.6 °F60 %29.86 in5.6 miNNE (20°)4.6 mphMostly Cloudy
7:00 PM29.0 °F19.0 °F54 %29.95 in6.0 miNE (50°)9.2 mphHaze
7:20 PM30.2 °F21.2 °F69 %29.86 in6.2 miNNE (20°)4.6 mphMostly Cloudy
7:50 PM28.4 °F21.2 °F74 %29.89 in6.2 miVariable3.5 mphMostly Cloudy
8:00 PM28.0 °F16.0 °F48 %29.97 inNNW (340°)4.6 mph
8:20 PM28.4 °F15.8 °F59 %29.89 in6.2 miVariable3.5 mphMostly Cloudy
8:50 PM28.4 °F15.8 °F59 %29.89 in6.2 miNorth (350°)3.5 mphMostly Cloudy
9:00 PM28.0 °F14.0 °F42 %29.99 inNorth3.5 mph
9:20 PM26.6 °F15.8 °F64 %29.92 in6.2 miNorth (350°)3.5 mphMostly Cloudy
9:50 PM26.6 °F15.8 °F64 %29.92 in6.2 miNorth (360°)3.5 mphMostly Cloudy
10:20 PM26.6 °F15.8 °F64 %29.92 in6.2 miNorth (360°)4.6 mphMostly Cloudy
10:50 PM26.6 °F15.8 °F64 %29.92 in6.2 miNorth (10°)4.6 mphMostly Cloudy
11:00 PM27.0 °F15.0 °F47 %30.01 inNorth5.8 mph
11:20 PM26.6 °F17.6 °F69 %29.92 in5.6 miNorth (350°)5.8 mphMostly Cloudy
11:50 PM26.6 °F19.4 °F74 %29.92 in5.6 miVariable2.3 mphMostly Cloudy
Hourly data recorded from LSGG, located miles away from Geneva, Switzerland







STORIES FROM OUR PARTNERS